[[{"header":{"parameterUnit":"m.s-1","parameterCategory":1,"la1":30.2991,"la2":30.254,"lo1":-89.0895,"lo2":-89.0444,"dy":0.0017,"dx":0.0017,"nx":28,"ny":28,"refTime":"2025-07-16T03:00:00:Z","depth":0,"parameterNumber":2,"parameterNumberName":"U-component_of_WINDS"},"data":[0,0,0,0,0,0,0,0,0,0,0,0,0,0,0,0,0,0,0,0,0,0,0,0,0,0,0,0,0,0,0,0,0,0,0,0,0,0,0,0,0,0,0,0,0,0,0,0,0,0,0,0,0,0,0,0,0,0,2.6613,2.6615,0,2.6728,2.6729,2.6731,2.6645,2.6641,2.6638,2.6634,2.6762,2.6769,2.6775,0,0,0,0,0,0,0,0,0,0,0,0,0,2.6332,2.6338,2.6613,2.6615,2.6616,2.6728,2.6729,2.6731,2.6646,2.6641,2.6637,2.6632,2.676,2.6768,2.6776,0,0,0,0,0,0,0,0,0,0,0,0,0,2.6452,2.634,2.6613,2.6587,2.6586,2.6727,2.6729,2.6731,2.6647,2.6641,2.6636,2.663,2.6757,2.6767,2.6777,2.6954,0,0,2.6809,2.6813,0,0,0,0,0,0,0,0,2.6445,2.6462,2.6589,2.6589,2.6588,2.6666,2.6677,2.6806,2.6648,2.6624,2.6634,2.6628,2.6735,2.6747,2.6781,2.696,2.6965,2.681,2.6816,2.6821,2.6823,0,0,0,0,0,0,0,2.6437,2.6457,2.6659,2.6591,2.6591,2.6573,2.6584,2.6701,2.671,2.6626,2.662,2.6634,2.6734,2.6772,2.6784,2.6967,2.6809,2.6819,2.6825,2.6829,2.7299,2.7305,0,0,0,0,0,0,2.6429,2.645,2.6655,2.6662,2.6501,2.6583,2.6595,2.6647,2.6709,2.6712,2.6639,2.6629,2.6757,2.6772,2.6788,2.7,2.682,2.683,2.6836,2.7293,2.7301,2.7308,0,0,0,0,0,0,2.6424,2.6448,2.6651,2.6555,2.6579,2.6594,2.6653,2.6652,2.6689,2.6718,2.6721,2.6674,2.6753,2.6773,2.6913,2.7003,2.6835,2.6844,2.7286,2.7296,2.7304,2.7424,0,0,0,0,0,0,2.6416,2.6447,2.6511,2.6557,2.6584,2.6771,2.6658,2.6659,2.6706,2.6696,2.6753,2.6757,2.675,2.6898,2.6923,2.7014,2.6852,2.7278,2.729,2.7301,2.7413,2.7437,2.7458,0,0,0,0,0,2.6406,2.6543,2.6515,2.654,2.6665,2.6776,2.6792,2.6779,2.6714,2.6781,2.68,2.6755,2.6989,2.6913,2.6941,2.7036,2.7272,2.7287,2.73,2.7402,2.7432,2.7457,0,0,0,0,0,0,2.651,2.6548,2.6518,2.6672,2.6721,2.6761,2.6845,2.681,2.6881,2.6869,2.6852,2.6866,2.7013,2.7039,2.6953,2.7212,2.7121,2.7141,2.7189,2.7217,2.7239,2.723,2.6861,0,0,0,0,0,2.6551,2.6634,2.6664,2.6798,2.6824,2.6831,2.6878,2.6863,2.6915,2.6936,2.6965,2.702,2.7106,2.7163,2.7244,2.7416,2.7429,2.7496,2.7518,2.7537,2.7555,2.765,2.768,2.7354,2.7354,2.7354,0,0,2.6636,2.6667,2.6721,2.6819,2.6856,2.6946,2.6848,2.6948,2.7016,2.6953,2.7085,2.7109,2.717,2.7327,2.7398,2.7353,2.7648,2.7555,2.7569,2.7577,2.7667,2.7698,2.7726,2.7364,2.7362,2.736,0,0,2.6837,2.6868,2.6983,2.7021,2.7077,2.7081,2.7109,2.7155,2.7167,2.7299,2.7254,2.7337,2.7485,2.753,2.7572,2.7794,2.7756,2.7821,2.7939,2.8031,2.8057,2.808,2.816,2.8188,2.7839,2.7839,2.7839,0,2.6937,2.7068,2.7048,2.7151,2.7196,2.7141,2.7259,2.7298,2.7379,2.7414,2.7362,2.7547,2.7584,2.7751,2.7805,2.7841,2.7875,2.7814,2.8054,2.8077,2.8098,2.8174,2.8204,2.7847,2.7846,2.7845,2.7844,0,2.7189,2.7281,2.7368,2.7443,2.7499,2.761,2.761,2.767,2.7651,2.7662,2.78,2.7842,2.793,2.7969,2.7953,2.8136,2.8107,2.8055,2.7964,2.8137,2.8208,2.8237,2.7857,2.7855,2.7852,2.7851,0,0,2.7457,2.7521,2.7553,2.7588,2.7646,2.7718,2.7828,2.7912,2.7964,2.8023,2.8116,2.8244,2.8196,2.8245,2.8234,2.8315,2.8489,2.8254,2.8255,2.8297,2.8695,2.8733,2.8767,2.8465,2.847,2.8475,2.869,0,2.7662,2.7848,2.7834,2.8012,2.8099,2.8048,2.8145,2.8193,2.8207,2.8285,2.8302,2.8392,2.8322,2.8351,2.843,2.8451,2.8569,2.8436,2.8554,2.8559,2.854,2.8804,2.8844,2.9045,2.8718,2.8723,2.8726,0,2.7924,2.7989,2.8174,2.822,2.8256,2.8342,2.8419,2.8494,2.8549,2.8554,2.8608,2.8584,2.8699,2.8605,2.8764,2.8674,2.8722,2.8741,2.8748,2.8759,2.8652,2.8822,2.9109,2.9139,2.877,2.8766,2.8763,0,2.8102,2.8236,2.8364,2.8396,2.8453,2.8515,2.8542,2.8591,2.8643,2.8712,2.8746,2.8829,2.8874,2.8941,2.8941,2.8872,2.9103,2.9008,2.9112,2.9113,2.9163,2.916,2.9462,2.9195,2.9194,2.9193,2.9193,0,2.8331,2.8447,2.8445,2.8524,2.8654,2.8639,2.8769,2.879,2.8835,2.892,2.8884,2.8965,2.896,2.9044,2.9046,2.9178,2.92,2.9209,2.9208,2.9212,2.9211,2.9243,2.9229,2.9201,2.92,2.9198,2.9197,0,2.8551,2.8554,2.8691,2.8734,2.8748,2.8842,2.888,2.8957,2.8968,2.9076,2.9101,2.912,2.9216,2.9223,2.9336,2.9337,2.9498,2.9482,2.9479,2.9476,2.9579,2.9569,2.9912,2.9957,2.9661,2.9664,2.9666,0,2.8697,2.8785,2.8837,2.8889,2.892,2.9006,2.9058,2.9049,2.9105,2.9176,2.9245,2.9338,2.9411,2.9569,2.9595,2.9682,2.9667,2.9782,2.968,2.9682,2.967,2.9664,2.9674,2.9801,2.9805,2.9807,2.981,0,2.8956,2.8953,2.9028,2.9105,2.9168,2.9228,2.9285,2.9331,2.9329,2.9396,2.9492,2.9549,2.9664,2.9757,2.9842,2.9874,2.9843,2.9841,2.987,2.9875,2.9869,2.9874,2.9532,2.9833,2.9831,2.9829,2.9828,2.9827,2.9143,2.9219,2.9268,2.9353,2.9395,2.9449,2.9523,2.9543,2.9622,2.9712,2.9703,2.9812,2.9868,2.9978,3.0017,3.0104,3.0065,3.0107,3.0117,3.0128,3.0138,2.9855,3.0119,3.0119,3.0118,3.0118,3.0117,0,2.94,2.9429,2.9508,2.9587,2.9656,2.9617,2.9679,2.9739,2.9834,2.9887,2.996,3.0073,3.0163,3.0197,3.0286,3.0349,3.0337,3.0373,3.0368,3.0377,3.0167,3.0133,3.0381,3.0381,3.0381,3.0381,3.0381,3.0381,2.9542,2.9669,2.9672,2.9821,2.985,2.9953,2.9991,3.0042,3.0084,3.0211,3.0285,3.0305,3.0352,3.0444,3.0527,3.0535,3.057,3.0612,3.0614,3.0418,3.0391,3.0366,3.0334,3.062,3.062,3.0816,3.0817,3.0819]},{"header":{"parameterUnit":"m.s-1","parameterCategory":1,"la1":30.2991,"la2":30.254,"lo1":-89.0895,"lo2":-89.0444,"dy":0.0017,"dx":0.0017,"nx":28,"ny":28,"refTime":"2025-07-16T03:00:00:Z","depth":0,"parameterNumber":3,"parameterNumberName":"V-component_of_WINDS"},"data":[0,0,0,0,0,0,0,0,0,0,0,0,0,0,0,0,0,0,0,0,0,0,0,0,0,0,0,0,0,0,0,0,0,0,0,0,0,0,0,0,0,0,0,0,0,0,0,0,0,0,0,0,0,0,0,0,0,0,0.5765,0.5766,0,0.5837,0.5838,0.5839,0.5767,0.5765,0.5762,0.5759,0.5837,0.5842,0.5847,0,0,0,0,0,0,0,0,0,0,0,0,0,0.5568,0.5572,0.5765,0.5766,0.5767,0.5837,0.5838,0.5839,0.5768,0.5764,0.5761,0.5758,0.5836,0.5841,0.5847,0,0,0,0,0,0,0,0,0,0,0,0,0,0.5648,0.5573,0.5765,0.574,0.5738,0.5837,0.5838,0.5839,0.5769,0.5764,0.576,0.5756,0.5834,0.5841,0.5848,0.5976,0,0,0.5869,0.5872,0,0,0,0,0,0,0,0,0.5644,0.5656,0.5743,0.5742,0.574,0.5789,0.5797,0.5885,0.577,0.5757,0.5759,0.5754,0.5825,0.5832,0.5855,0.598,0.5983,0.587,0.5874,0.5877,0.5879,0,0,0,0,0,0,0,0.5638,0.5652,0.5794,0.5744,0.5742,0.5725,0.5732,0.5813,0.5814,0.5758,0.5753,0.5762,0.5823,0.5849,0.5857,0.5984,0.587,0.5876,0.588,0.5883,0.6215,0.6219,0,0,0,0,0,0,0.5635,0.5648,0.5791,0.5796,0.568,0.5732,0.574,0.5778,0.5813,0.5814,0.5766,0.5759,0.5839,0.5849,0.5859,0.601,0.5877,0.5884,0.5888,0.621,0.6216,0.622,0,0,0,0,0,0,0.5631,0.5648,0.5789,0.572,0.5737,0.574,0.5783,0.5781,0.5806,0.5819,0.5819,0.5791,0.5836,0.5849,0.5947,0.6011,0.5887,0.5894,0.6205,0.6212,0.6218,0.6313,0,0,0,0,0,0,0.5626,0.5647,0.5696,0.5722,0.5741,0.5875,0.5787,0.5786,0.5818,0.581,0.5843,0.5844,0.5833,0.5936,0.5954,0.6019,0.5899,0.6199,0.6208,0.6216,0.6305,0.6323,0.6338,0,0,0,0,0,0.5619,0.5722,0.5699,0.5717,0.5802,0.5879,0.5889,0.5874,0.5824,0.5873,0.588,0.5843,0.6002,0.5947,0.5966,0.6034,0.6195,0.6205,0.6215,0.6297,0.6319,0.6338,0,0,0,0,0,0,0.5706,0.5725,0.57,0.5814,0.5845,0.5866,0.5928,0.5898,0.5945,0.5935,0.5915,0.5923,0.6025,0.604,0.5978,0.6159,0.609,0.6105,0.6146,0.6167,0.6183,0.6178,0.5905,0,0,0,0,0,0.5738,0.5798,0.5812,0.5911,0.5928,0.5925,0.5958,0.5943,0.5975,0.5988,0.6002,0.6036,0.6092,0.6131,0.6184,0.6306,0.6311,0.6362,0.6379,0.6393,0.6406,0.6468,0.649,0.6254,0.6254,0.6254,0,0,0.5806,0.5824,0.5863,0.5929,0.5951,0.6014,0.5937,0.6007,0.6053,0.5999,0.6091,0.6103,0.6138,0.6248,0.6297,0.6263,0.6472,0.6406,0.6417,0.6422,0.6481,0.6504,0.6523,0.6261,0.626,0.6259,0,0,0.5961,0.5981,0.6064,0.6087,0.6121,0.6118,0.6138,0.6163,0.6168,0.6259,0.6219,0.6274,0.6373,0.6399,0.6425,0.6586,0.6553,0.6604,0.6693,0.6754,0.6773,0.6789,0.6845,0.6865,0.6617,0.6617,0.6618,0,0.6041,0.6133,0.6112,0.6184,0.6213,0.6164,0.6249,0.6272,0.6323,0.6344,0.6305,0.6425,0.6446,0.656,0.6598,0.6622,0.6644,0.6601,0.6772,0.6788,0.6803,0.6856,0.6877,0.6623,0.6623,0.6622,0.6621,0,0.6229,0.6293,0.6357,0.6404,0.644,0.6519,0.6509,0.6549,0.653,0.6531,0.6623,0.6646,0.6701,0.6727,0.6711,0.6838,0.6815,0.6774,0.6705,0.6831,0.6881,0.6901,0.6632,0.6629,0.6628,0.6626,0,0,0.6443,0.6474,0.6498,0.6517,0.6549,0.6598,0.6674,0.6726,0.6759,0.6795,0.6857,0.694,0.6901,0.6931,0.6916,0.697,0.7093,0.6922,0.6923,0.6952,0.7233,0.7262,0.7286,0.7072,0.7075,0.7078,0.7229,0,0.6597,0.6726,0.6708,0.6832,0.689,0.6843,0.6908,0.6934,0.6937,0.6987,0.699,0.7048,0.6993,0.701,0.7062,0.7068,0.7149,0.7057,0.7129,0.7131,0.712,0.7312,0.7345,0.7486,0.7248,0.7251,0.7254,0,0.6795,0.6835,0.6964,0.6984,0.7008,0.7066,0.7111,0.7159,0.7188,0.7186,0.7217,0.7192,0.7266,0.7195,0.7296,0.7234,0.7262,0.7269,0.7274,0.7279,0.72,0.7322,0.7531,0.7551,0.7284,0.7282,0.728,0,0.6936,0.7022,0.7109,0.7128,0.7154,0.7196,0.7209,0.7233,0.7264,0.7304,0.7323,0.7372,0.7398,0.7436,0.7424,0.7374,0.7527,0.7456,0.7527,0.7527,0.7562,0.756,0.7777,0.7582,0.7581,0.7581,0.7581,0,0.711,0.7191,0.7172,0.7227,0.7315,0.7292,0.7381,0.7388,0.7409,0.7463,0.7426,0.7478,0.7459,0.751,0.7501,0.7585,0.7598,0.7598,0.7594,0.7601,0.76,0.7618,0.7608,0.7587,0.7585,0.7584,0.7583,0,0.7282,0.7274,0.7365,0.7381,0.7387,0.7451,0.7465,0.7515,0.7513,0.7582,0.7597,0.7595,0.7652,0.7643,0.7708,0.7702,0.7806,0.7791,0.7796,0.7792,0.7863,0.7856,0.8098,0.8128,0.7915,0.7917,0.7919,0,0.7393,0.7454,0.7475,0.7507,0.7523,0.7577,0.7607,0.7587,0.7621,0.7656,0.7702,0.7755,0.7797,0.789,0.7895,0.7943,0.7928,0.801,0.7935,0.7939,0.7927,0.7923,0.7928,0.8025,0.8027,0.8029,0.8031,0,0.7591,0.7583,0.7628,0.7672,0.7709,0.7743,0.7773,0.7802,0.7785,0.7824,0.7881,0.7913,0.7977,0.803,0.8074,0.8087,0.8056,0.8054,0.8072,0.8079,0.8078,0.8078,0.7835,0.8048,0.8047,0.8045,0.8044,0.8044,0.7735,0.7785,0.7807,0.7858,0.7878,0.7906,0.7953,0.7956,0.8003,0.8052,0.8037,0.8101,0.8125,0.8181,0.8199,0.8249,0.8219,0.8247,0.8253,0.826,0.8267,0.8071,0.8257,0.8257,0.8256,0.8256,0.8255,0,0.7929,0.794,0.7987,0.8029,0.8069,0.8034,0.8064,0.81,0.8156,0.8181,0.8222,0.8286,0.8336,0.8343,0.839,0.8428,0.8415,0.8441,0.8438,0.8441,0.8293,0.8271,0.8451,0.8451,0.8451,0.8451,0.8451,0.8451,0.8034,0.8117,0.8111,0.8202,0.8212,0.8273,0.8293,0.8319,0.8338,0.841,0.8451,0.8455,0.8472,0.852,0.8564,0.8564,0.8583,0.8615,0.861,0.8471,0.8452,0.8433,0.8412,0.8619,0.862,0.8753,0.8755,0.8756]}]]